Content
SEND FEEDBACK

Daily
Averages
Monthly
Summary
United States of America

PROVIDENCE, NORTH CAROLINA


Home > North America > United States > North Carolina
Elevation: 454 feet     Latitude: 36 35N     Longitude: 079 23W

WEATHER
 
SELECT A DAY
Number of Records: 198,001;   Date Range: 1/1/95 - 9/16/14
 
SHARE

PRINT THIS DATA

[ ← Previous Day ]
WEATHER ALMANAC - JANUARY 31, 2013
[ Next Day → ]
[ °C ]   °F
Weather ElementAverageHighLow
Temperature44.3 °F55.4 °F (1:40 am)30.9 °F (9:53 pm)
Dewpoint28.1 °F52 °F (1:53 am)16 °F (2:53 pm)
Humidity55.6 %89 % (1:53 am)30 % (2:53 pm)
Barometer29.74 in29.97 in (8:53 pm)29.40 in (1:53 am)
Wind Speed14 mph26.5 mph (2:30 am)
Wind Gust38 mph (2:30 am)
Weather ElementAverage
Visibility9.9 mi
Wind DirectionWSW (253.8 °)

Weather ElementTotal
Precipitation0.24 in
Heating Degree Days21.9 (Base 65)
Averaged from 26 records on January 31, 2013
WEATHER CONDITIONS BREAKOUT
WIND DIRECTION BREAKOUT
WEATHER BY HOUR - JANUARY 31, 2013
[ °C ]   °F
Local TimeTemperatureDewpointHumidityBarometerVisibilityWind DirectionWind SpeedGust SpeedPrecipitationEventsConditions
1:40 AM55.4 °F51.8 °F88 %29.42 in10.0 miWSW (240°)9.2 mph0.02 inOvercast
1:53 AM55.0 °F52.0 °F89 %29.40 in10.0 miWSW (240°)10.4 mph0.03 inRainLight Rain
2:09 AM55.4 °F51.8 °F88 %29.44 in7.0 miWest (260°)16.1 mph27.6 mph0.05 inRainLight Rain
2:30 AM53.6 °F48.2 °F82 %29.43 in10.0 miWSW (240°)26.5 mph38.0 mph0.06 inRainLight Rain
2:53 AM53.1 °F46.9 °F80 %29.42 in10.0 miWSW (250°)23.0 mph29.9 mph0.06 inOvercast
3:53 AM50.0 °F43.0 °F77 %29.47 in10.0 miWSW (250°)15.0 mph0.02 inOvercast
4:53 AM48.9 °F39.0 °F69 %29.52 in10.0 miWest (260°)11.5 mph21.9 mphMostly Cloudy
5:53 AM46.0 °F33.1 °F61 %29.59 in10.0 miWest (270°)15.0 mph23.0 mphClear
6:53 AM44.1 °F28.9 °F55 %29.65 in10.0 miWest (280°)13.8 mph19.6 mphScattered Clouds
7:53 AM43.0 °F28.0 °F56 %29.71 in10.0 miWest (270°)6.9 mphOvercast
8:53 AM42.1 °F21.0 °F43 %29.77 in10.0 miWest (270°)15.0 mph26.5 mphClear
9:53 AM43.0 °F23.0 °F45 %29.81 in10.0 miWSW (250°)19.6 mph27.6 mphPartly Cloudy
10:53 AM45.0 °F21.9 °F40 %29.82 in10.0 miWest (260°)19.6 mph28.8 mphPartly Cloudy
11:53 AM44.1 °F21.0 °F40 %29.83 in10.0 miWest (260°)20.7 mph32.2 mphMostly Cloudy
12:53 PM46.0 °F19.9 °F35 %29.83 in10.0 miWest (270°)18.4 mph32.2 mphScattered Clouds
1:53 PM45.0 °F19.9 °F37 %29.83 in10.0 miWest (260°)15.0 mph31.1 mphMostly Cloudy
2:53 PM46.0 °F16.0 °F30 %29.84 in10.0 miWest (270°)21.9 mph35.7 mphMostly Cloudy
3:53 PM46.0 °F18.0 °F33 %29.88 in10.0 miWest (280°)16.1 mph31.1 mphOvercast
4:53 PM44.1 °F17.1 °F34 %29.91 in10.0 miWest (280°)13.8 mph25.3 mphMostly Cloudy
5:53 PM41.0 °F17.1 °F38 %29.93 in10.0 miWest (270°)16.1 mph24.2 mphPartly Cloudy
6:53 PM37.0 °F19.0 °F48 %29.95 in10.0 miWSW (240°)8.1 mphClear
7:53 PM37.0 °F19.0 °F48 %29.96 in10.0 miWSW (250°)8.1 mphClear
8:53 PM36.0 °F18.0 °F48 %29.97 in10.0 miSW (220°)6.9 mphClear
9:53 PM30.9 °F19.0 °F61 %29.96 in10.0 miSW (230°)5.8 mphClear
10:53 PM33.1 °F19.0 °F56 %29.97 in10.0 miSSW (210°)6.9 mphClear
11:53 PM30.9 °F19.9 °F64 %29.96 in10.0 miSW (220°)4.6 mphClear
Hourly data recorded from KDAN, located miles away from Providence, North Carolina







STORIES FROM OUR PARTNERS